[TLELIST] Archives

 

Current TLEs

November 21st 2007 PDT

HST 1 20580U 90037B 07323.27421742 +.00000401 +00000-0 +18258-4 0 00105 2 20580 028.4692 258.7671 0003234 303.4763 056.5528 15.00304335763272 ISS (ZARYA) 1 25544U 98067A 07324.36367757 .00015803 00000-0 10162-3 0 3770 2 25544 051.6433 018.6822 0001551 179.7900 284.0267 15.76408852515417 CXO 1 25867U 99040B 07323.66666667 .00000612 00000-0 10000-3 0 1360 2 25867 062.7092 085.8435 6466549 281.6177 357.5401 00.37807662 2838 ____________________________________________________________________ These 2-Line ...Continue Reading

Current TLEs

November 20th 2007 PDT

HST 1 20580U 90037B 07323.34073964 .00000393 00000-0 17638-4 0 91 2 20580 028.4692 258.3294 0003321 305.5525 054.4775 15.00304256763289 ISS (ZARYA) 1 25544U 98067A 07323.40956378 .00020575 00000-0 13114-3 0 3735 2 25544 051.6416 023.5959 0001566 170.2305 275.3285 15.76386168515266 CXO 1 25867U 99040B 07323.66666667 .00000612 00000-0 10000-3 0 1360 2 25867 062.7092 085.8435 6466549 281.6177 357.5401 00.37807662 2838 ____________________________________________________________________ These 2-Line ...Continue Reading

Current TLEs

November 19th 2007 PDT

HST 1 20580U 90037B 07322.01029179 .00000383 00000-0 16844-4 0 78 2 20580 028.4695 267.0105 0003341 287.1558 072.8700 15.00303637763085 ISS (ZARYA) 1 25544U 98067A 07322.39853913 .00021536 00000-0 13729-3 0 3698 2 25544 051.6409 028.8063 0001860 173.1576 291.0603 15.76347226515105 CXO 1 25867U 99040B 07321.04166667 .00000585 00000-0 10000-3 0 1353 2 25867 062.6932 085.9049 6461349 281.6231 000.2475 00.37805582 2827 ____________________________________________________________________ These 2-Line ...Continue Reading

Current TLEs

November 18th 2007 PDT

HST 1 20580U 90037B 07320.21418696 .00000388 00000-0 17238-4 0 55 2 20580 028.4691 278.7288 0003416 269.4471 090.5726 15.00302767762810 ISS (ZARYA) 1 25544U 98067A 07321.38284444 .00022325 00000-0 14242-3 0 3624 2 25544 051.6417 034.0389 0001669 171.8465 284.6510 15.76305440514941 CXO 1 25867U 99040B 07321.04166667 .00000585 00000-0 10000-3 0 1353 2 25867 062.6932 085.9049 6461349 281.6231 000.2475 00.37805582 2827 ____________________________________________________________________ These 2-Line ...Continue Reading

Current TLEs

November 17th 2007 PDT

HST 1 20580U 90037B 07320.21418696 .00000388 00000-0 17238-4 0 55 2 20580 028.4691 278.7288 0003416 269.4471 090.5726 15.00302767762810 ISS (ZARYA) 1 25544U 98067A 07320.43247692 .00021287 00000-0 13629-3 0 3559 2 25544 051.6415 038.9351 0001742 173.0789 286.7916 15.76258152514799 CXO 1 25867U 99040B 07321.04166667 .00000585 00000-0 10000-3 0 1353 2 25867 062.6932 085.9049 6461349 281.6231 000.2475 00.37805582 2827 ____________________________________________________________________ These 2-Line ...Continue Reading

Current TLEs

November 16th 2007 PDT

HST 1 20580U 90037B 07319.14982747 .00000347 00000-0 14068-4 0 40 2 20580 028.4695 285.6703 0003610 255.4224 104.5963 15.00302130762655 ISS (ZARYA) 1 25544U 98067A 07319.47925079 .00019724 00000-0 12687-3 0 3492 2 25544 051.6423 043.8462 0001714 179.5862 267.5770 15.76210455514641 CXO 1 25867U 99040B 07318.41666667 .00000529 00000-0 10000-3 0 1342 2 25867 062.6810 085.9604 6456380 281.6485 002.9048 00.37804884 2817 ____________________________________________________________________ These 2-Line ...Continue Reading

Current TLEs

November 15th 2007 PDT

HST 1 20580U 90037B 07316.28936315 +.00000330 +00000-0 +12718-4 0 00033 2 20580 028.4695 304.3232 0003565 225.6832 134.3466 15.00301018762220 ISS (ZARYA) 1 25544U 98067A 07318.40127131 .00017378 00000-0 11255-3 0 3445 2 25544 051.6418 049.3990 0001956 172.1065 274.1447 15.76157108514475 CXO 1 25867U 99040B 07318.41666667 .00000529 00000-0 10000-3 0 1342 2 25867 062.6810 085.9604 6456380 281.6485 002.9048 00.37804884 2817 ____________________________________________________________________ These 2-Line ...Continue Reading

Current TLEs

November 14th 2007 PDT

HST 1 20580U 90037B 07315.42457156 +.00000319 +00000-0 +11856-4 0 00162 2 20580 028.4694 309.9626 0003554 217.0513 142.9835 15.00300629762093 ISS (ZARYA) 1 25544U 98067A 07317.38505005 .00017147 00000-0 11130-3 0 3391 2 25544 051.6408 054.6322 0001775 164.3641 271.8460 15.76119398514315 CXO 1 25867U 99040B 07315.75000000 .00000483 00000-0 10000-3 0 1337 2 25867 062.6701 086.0147 6450537 281.6892 359.8641 00.37804422 2800 ____________________________________________________________________ These 2-Line ...Continue Reading

Current TLEs

November 13th 2007 PDT

HST 1 20580U 90037B 07316.22284072 .00000324 00000-0 12219-4 0 21 2 20580 028.4695 304.7572 0003579 225.2645 134.7653 15.00300939762216 ISS (ZARYA) 1 25544U 98067A 07315.86718869 .00016422 00000-0 10703-3 0 3330 2 25544 051.6409 062.4516 0002225 163.4678 294.6828 15.76063756514079 CXO 1 25867U 99040B 07315.75000000 .00000483 00000-0 10000-3 0 1337 2 25867 062.6701 086.0147 6450537 281.6892 359.8641 00.37804422 2800 ____________________________________________________________________ These 2-Line ...Continue Reading

Current TLEs

November 12th 2007 PDT

HST 1 20580U 90037B 07314.42673414 .00000302 00000-0 10550-4 0 14 2 20580 028.4693 316.4708 0003787 207.7680 152.2709 15.00300230761940 ISS (ZARYA) 1 25544U 98067A 07314.85169139 .00014636 00000-0 96020-4 0 3262 2 25544 051.6406 067.6823 0002197 163.7347 288.8148 15.76022744513912 CXO 1 25867U 99040B 07315.75000000 .00000483 00000-0 10000-3 0 1337 2 25867 062.6701 086.0147 6450537 281.6892 359.8641 00.37804422 2800 ____________________________________________________________________ These 2-Line ...Continue Reading
  • This mailing list is a public mailing list - anyone may join or leave, at any time.
  • This mailing list is announce-only.

International Space Station (ISS) / Hubble Space Telescope (HST) / Chandra X-Ray Observatory Orbital Data via EMAIL

Privacy Policy:

Private list